Вернуться в каталог

FENGYUN 1C DEB

АктивенPO
NORAD 30397·DEBRIS·🇨🇳 China

Запущен May 10, 1999 с Taiyuan Satellite Launch Center

Loading…

Ближайшие Пролёты (ближайшие 24 часа)

TLE

СвежийSource: Space-Track

Эпоха: Sep 13, 2026, 07:16 UTC

1 30397U 99025ADL 26256.30321502  .00001001  00000-0  64792-3 0  9997
2 30397  98.4331  27.4827 0149029  42.3031  15.8511 13.99496873996048

Отслеживайте FENGYUN 1C DEB в реальном времени с AllMySat

Download on the App Store